• In Romania
  • List of Countries
  • For 7 days
  • Water Temperature
  • Satellite Maps
  • Weather Map
  • Weather Widgets
  • user-avatar
    Login

    Hourly Weather Bucharest

    Today, 18 August, Friday

    Time Temperature Precipitation Wind Pressure Humidity
    00:00 +25°C° 0 mm 2 mps 756 mmHg 40%
    01:00 +25°C° 0 mm 2 mps 756 mmHg 42%
    02:00 +24°C° 0 mm 2 mps 756 mmHg 42%
    03:00 +24°C° 0 mm 2 mps 756 mmHg 43%
    04:00 +24°C° 0 mm 2 mps 756 mmHg 44%
    05:00 +23°C° 0 mm 2 mps 756 mmHg 45%
    06:00 +25°C° 0 mm 2 mps 756 mmHg 42%
    07:00 +27°C° 0 mm 2 mps 756 mmHg 38%
    08:00 +29°C° 0 mm 3 mps 756 mmHg 34%
    09:00 +31°C° 0 mm 3 mps 756 mmHg 29%
    10:00 +34°C° 0 mm 4 mps 756 mmHg 24%
    11:00 +36°C° 0 mm 4 mps 756 mmHg 19%
    12:00 +37°C° 0 mm 4 mps 756 mmHg 18%
    13:00 +39°C° 0 mm 5 mps 755 mmHg 17%
    14:00 +37°C° 0 mm 4 mps 756 mmHg 17%
    15:00 +37°C° 0 mm 4 mps 756 mmHg 17%
    16:00 +37°C° 0 mm 4 mps 755 mmHg 17%
    17:00 +37°C° 0 mm 4 mps 755 mmHg 18%
    18:00 +35°C° 0 mm 3 mps 755 mmHg 21%
    19:00 +31°C° 0 mm 3 mps 755 mmHg 24%
    20:00 +29°C° 0 mm 2 mps 755 mmHg 27%
    21:00 +28°C° 0 mm 2 mps 756 mmHg 29%
    22:00 +27°C° 0 mm 2 mps 756 mmHg 31%
    23:00 +26°C° 0 mm 2 mps 756 mmHg 34%

    Tomorrow, 19 August, Saturday

    Time Temperature Precipitation Wind Pressure Humidity
    00:00 +26°C° 0 mm 2 mps 756 mmHg 35%
    01:00 +25°C° 0 mm 2 mps 756 mmHg 36%
    02:00 +25°C° 0 mm 2 mps 756 mmHg 38%
    03:00 +24°C° 0 mm 2 mps 756 mmHg 39%
    04:00 +24°C° 0 mm 2 mps 756 mmHg 40%
    05:00 +23°C° 0 mm 1 mps 756 mmHg 41%
    06:00 +25°C° 0 mm 2 mps 756 mmHg 38%
    07:00 +27°C° 0 mm 2 mps 756 mmHg 35%
    08:00 +29°C° 0 mm 2 mps 756 mmHg 31%
    09:00 +31°C° 0 mm 2 mps 756 mmHg 28%
    10:00 +34°C° 0 mm 3 mps 756 mmHg 25%
    11:00 +36°C° 0 mm 3 mps 756 mmHg 21%
    12:00 +36°C° 0 mm 3 mps 755 mmHg 20%
    13:00 +37°C° 0 mm 3 mps 755 mmHg 18%
    14:00 +38°C° 0 mm 3 mps 755 mmHg 16%
    15:00 +38°C° 0 mm 4 mps 755 mmHg 16%
    16:00 +38°C° 0 mm 4 mps 754 mmHg 16%
    17:00 +37°C° 0 mm 4 mps 754 mmHg 16%
    18:00 +35°C° 0 mm 3 mps 754 mmHg 19%
    19:00 +33°C° 0 mm 3 mps 755 mmHg 22%
    20:00 +30°C° 0 mm 3 mps 755 mmHg 26%
    21:00 +28°C° 0 mm 3 mps 755 mmHg 31%
    22:00 +27°C° 0 mm 3 mps 756 mmHg 35%
    23:00 +25°C° 0 mm 3 mps 756 mmHg 40%

    Day after tomorrow, 20 August, Sunday

    Time Temperature Precipitation Wind Pressure Humidity
    00:00 +25°C° 0 mm 2 mps 756 mmHg 41%
    01:00 +24°C° 0 mm 2 mps 755 mmHg 42%
    02:00 +23°C° 0 mm 2 mps 755 mmHg 43%
    03:00 +23°C° 0 mm 2 mps 755 mmHg 42%
    04:00 +21°C° 0 mm 2 mps 755 mmHg 42%
    05:00 +21°C° 0 mm 2 mps 755 mmHg 41%
    06:00 +24°C° 0 mm 2 mps 755 mmHg 37%
    07:00 +26°C° 0 mm 3 mps 755 mmHg 33%
    08:00 +28°C° 0 mm 3 mps 755 mmHg 29%
    09:00 +30°C° 0 mm 3 mps 755 mmHg 26%
    10:00 +33°C° 0 mm 4 mps 754 mmHg 24%
    11:00 +35°C° 0 mm 4 mps 754 mmHg 21%
    12:00 +36°C° 0 mm 4 mps 754 mmHg 21%
    13:00 +36°C° 0 mm 4 mps 753 mmHg 20%
    14:00 +37°C° 0 mm 4 mps 753 mmHg 19%
    15:00 +37°C° 0 mm 4 mps 752 mmHg 20%
    16:00 +37°C° 0 mm 4 mps 752 mmHg 20%
    17:00 +37°C° 0 mm 4 mps 751 mmHg 21%
    18:00 +35°C° 0 mm 4 mps 752 mmHg 25%
    19:00 +33°C° 0 mm 4 mps 752 mmHg 29%
    20:00 +30°C° 0 mm 3 mps 752 mmHg 33%
    21:00 +29°C° 0 mm 3 mps 752 mmHg 39%
    22:00 +27°C° 0 mm 3 mps 752 mmHg 44%
    23:00 +26°C° 0 mm 3 mps 752 mmHg 50%

    21 August, Monday

    Time Temperature Precipitation Wind Pressure Humidity
    00:00 +25°C° 0 mm 2 mps 752 mmHg 52%
    01:00 +24°C° 0 mm 2 mps 752 mmHg 54%
    02:00 +24°C° 0 mm 2 mps 752 mmHg 57%
    03:00 +23°C° 0 mm 2 mps 752 mmHg 57%
    04:00 +23°C° 0 mm 1 mps 752 mmHg 57%
    05:00 +22°C° 0 mm 1 mps 752 mmHg 57%
    06:00 +24°C° 0 mm 2 mps 752 mmHg 52%
    07:00 +25°C° 0 mm 2 mps 752 mmHg 46%
    08:00 +27°C° 0 mm 2 mps 752 mmHg 41%
    09:00 +29°C° 0 mm 2 mps 752 mmHg 37%
    10:00 +30°C° 0 mm 2 mps 752 mmHg 33%
    11:00 +32°C° 0 mm 2 mps 751 mmHg 29%
    12:00 +34°C° 0 mm 2 mps 751 mmHg 27%
    13:00 +35°C° 0 mm 2 mps 751 mmHg 25%
    14:00 +36°C° 0 mm 2 mps 750 mmHg 23%
    15:00 +35°C° 0 mm 2 mps 750 mmHg 25%
    16:00 +34°C° 0 mm 3 mps 750 mmHg 26%
    17:00 +33°C° 0 mm 3 mps 750 mmHg 28%
    18:00 +30°C° 0.3 mm 4 mps 750 mmHg 38%
    19:00 +28°C° 0.3 mm 4 mps 750 mmHg 47%
    20:00 +25°C° 0.3 mm 5 mps 751 mmHg 57%
    21:00 +23°C° 0.8 mm 4 mps 751 mmHg 63%
    22:00 +22°C° 0.8 mm 3 mps 751 mmHg 69%
    23:00 +21°C° 0.8 mm 2 mps 751 mmHg 75%

    22 August, Tuesday

    Time Temperature Precipitation Wind Pressure Humidity
    00:00 +21°C° 1.4 mm 2 mps 751 mmHg 78%
    01:00 +20°C° 1.4 mm 2 mps 751 mmHg 80%
    02:00 +21°C° 1.4 mm 1 mps 752 mmHg 83%
    03:00 +21°C° 1.3 mm 1 mps 752 mmHg 84%
    04:00 +19°C° 1.3 mm 2 mps 752 mmHg 85%
    05:00 +19°C° 1.3 mm 2 mps 752 mmHg 85%
    06:00 +19°C° 1.2 mm 2 mps 752 mmHg 82%
    07:00 +20°C° 1.2 mm 2 mps 752 mmHg 79%
    08:00 +20°C° 1.2 mm 3 mps 753 mmHg 76%
    09:00 +21°C° 0.9 mm 3 mps 753 mmHg 72%
    10:00 +21°C° 0.9 mm 3 mps 752 mmHg 68%
    11:00 +22°C° 0.9 mm 3 mps 752 mmHg 65%
    12:00 +24°C° 0.8 mm 3 mps 752 mmHg 60%
    13:00 +25°C° 0.8 mm 3 mps 752 mmHg 55%
    14:00 +26°C° 0.8 mm 3 mps 751 mmHg 50%
    15:00 +26°C° 0.1 mm 2 mps 751 mmHg 48%
    16:00 +26°C° 0.1 mm 2 mps 751 mmHg 45%
    17:00 +27°C° 0.1 mm 2 mps 751 mmHg 43%
    18:00 +25°C° 1.7 mm 2 mps 751 mmHg 49%
    19:00 +22°C° 1.7 mm 3 mps 752 mmHg 56%
    20:00 +21°C° 1.7 mm 3 mps 752 mmHg 62%
    21:00 +20°C° 3.1 mm 4 mps 752 mmHg 66%
    22:00 +19°C° 3.1 mm 4 mps 752 mmHg 70%
    23:00 +18°C° 3.1 mm 4 mps 753 mmHg 74%

    23 August, Wednesday

    Time Temperature Precipitation Wind Pressure Humidity
    00:00 +17°C° 0.3 mm 3 mps 753 mmHg 75%
    01:00 +17°C° 0.3 mm 2 mps 753 mmHg 75%
    02:00 +18°C° 0.3 mm 1 mps 753 mmHg 76%
    03:00 +17°C° 0.2 mm 2 mps 753 mmHg 77%
    04:00 +17°C° 0.2 mm 2 mps 753 mmHg 78%
    05:00 +17°C° 0.2 mm 2 mps 754 mmHg 78%
    06:00 +18°C° 0 mm 2 mps 754 mmHg 74%
    07:00 +18°C° 0 mm 3 mps 754 mmHg 70%
    08:00 +19°C° 0 mm 3 mps 754 mmHg 66%
    09:00 +21°C° 0 mm 4 mps 754 mmHg 59%
    10:00 +22°C° 0 mm 4 mps 754 mmHg 52%
    11:00 +25°C° 0 mm 5 mps 754 mmHg 44%
    12:00 +26°C° 0 mm 4 mps 754 mmHg 41%
    13:00 +27°C° 0 mm 4 mps 754 mmHg 37%
    14:00 +28°C° 0 mm 4 mps 754 mmHg 34%
    15:00 +27°C° 0 mm 4 mps 754 mmHg 34%
    16:00 +27°C° 0 mm 4 mps 754 mmHg 35%
    17:00 +27°C° 0 mm 4 mps 754 mmHg 36%
    18:00 +25°C° 0 mm 4 mps 754 mmHg 40%
    19:00 +22°C° 0 mm 4 mps 755 mmHg 45%
    20:00 +21°C° 0 mm 4 mps 755 mmHg 50%
    21:00 +20°C° 0 mm 3 mps 756 mmHg 52%
    22:00 +19°C° 0 mm 2 mps 756 mmHg 55%
    23:00 +18°C° 0 mm 2 mps 756 mmHg 57%
    Show more